Wind_Speed
14 15 15 15 15 15 15 15 15 15 16 15 15 15 14 14 11 13 16 13 11 8 9 12 14 14 17 16 21 14 1 2 5 10 6 17 12 25 20 26 22 14 29 37 37
15 15 16 16 16 16 15 15 15 15 15 15 14 14 15 15 14 16 16 16 13 8 9 13 17 21 10 7 7 10 5 7 5 8 9 17 19 16 13 23 13 24 30 38 34
15 15 15 16 16 16 15 15 15 14 15 15 14 13 14 14 12 5 12 17 14 10 10 11 15 14 6 12 4 3 6 6 5 12 18 18 14 7 21 9 31 32 37 34 35
15 15 15 15 16 16 15 15 14 14 14 14 13 12 12 10 1 4 4 12 14 11 11 10 10 14 6 6 14 5 5 10 8 15 15 10 11 6 13 12 27 28 38 34 33
15 15 16 15 15 15 15 14 13 13 13 12 12 11 10 6 9 5 4 7 13 13 11 10 12 7 4 8 20 6 4 15 13 21 20 23 12 10 20 31 30 36 34 33 30
17 16 16 16 15 15 14 13 12 12 12 11 10 10 8 4 2 3 2 3 7 11 11 11 8 10 13 8 9 18 15 15 15 16 9 15 4 9 22 34 36 36 32 30 28
17 17 16 15 15 15 14 13 12 11 10 10 9 9 12 15 4 7 6 3 4 8 11 12 11 14 14 14 20 19 6 4 10 7 4 22 7 5 24 34 34 35 32 28 21
17 16 16 16 15 15 14 12 11 9 9 8 7 8 10 1 7 13 9 9 7 9 12 10 14 21 14 15 11 4 6 4 4 8 1 8 3 7 20 32 29 33 32 30 29
16 16 15 15 16 15 13 12 9 7 7 6 5 6 11 7 12 12 18 14 9 8 9 11 13 11 8 3 5 7 2 2 2 4 3 6 6 11 24 32 28 30 33 33 30
16 15 15 14 15 14 11 9 5 5 5 6 7 7 9 2 5 7 11 14 11 7 7 6 2 3 5 5 4 2 2 4 1 7 3 4 9 6 20 29 27 32 33 34 32
16 15 14 13 13 12 5 3 4 3 6 11 6 13 14 6 4 6 7 10 13 8 2 6 4 3 8 8 7 3 4 3 2 9 10 9 11 11 11 15 22 28 31 35 33
17 15 14 11 10 8 5 6 8 7 10 17 20 27 24 16 9 9 9 9 5 4 0 4 3 10 9 10 9 11 6 5 4 9 6 12 20 15 12 10 24 22 29 31 32
17 15 14 9 6 2 1 9 6 12 4 12 15 20 18 7 13 9 11 12 3 3 3 7 11 9 8 11 10 13 5 7 9 12 11 11 6 6 7 11 19 23 33 33 35
17 15 14 6 2 3 5 6 6 9 4 7 5 8 17 10 7 16 15 15 3 8 6 6 16 8 8 9 8 9 12 7 10 6 6 5 5 2 4 2 4 20 34 36 37
18 15 10 8 5 1 3 1 2 3 3 4 5 3 10 13 2 6 13 19 9 6 6 10 6 6 9 15 9 14 10 3 4 6 3 5 4 5 2 7 10 18 35 27 34
17 16 10 10 8 5 5 2 4 5 2 3 5 5 6 8 8 6 16 22 6 4 3 10 7 8 9 5 5 4 4 8 5 4 5 3 5 5 6 10 10 23 19 22 20
16 16 13 10 2 5 4 3 4 2 4 5 5 5 4 4 4 7 7 5 5 2 5 7 9 5 5 3 5 8 7 4 5 4 7 4 2 10 14 10 12 15 13 10 22
17 13 9 5 8 5 1 4 2 5 7 4 6 5 6 6 6 3 5 3 3 5 3 2 8 5 4 9 7 4 8 6 5 3 6 4 5 6 8 1 7 7 16 11 12
14 8 2 3 12 7 2 2 6 4 3 3 4 4 4 5 4 4 7 9 9 8 7 5 6 7 11 6 10 3 2 7 4 2 4 3 6 7 3 3 2 5 24 21 22
13 5 2 3 11 8 4 4 5 4 4 4 2 3 4 5 6 7 7 6 5 12 7 4 3 2 6 4 1 6 4 3 4 1 3 5 3 4 6 5 7 8 15 17 27
8 4 5 9 13 3 2 6 6 13 10 4 0 2 4 3 11 8 10 5 12 2 12 5 4 8 2 3 7 2 1 5 6 5 4 1 5 7 10 8 9 11 24 29 28
5 2 11 13 3 1 2 5 8 13 19 3 0 2 2 5 2 5 9 10 14 11 7 4 5 1 7 9 8 6 8 7 5 5 2 4 5 2 9 7 15 22 24 20 15
11 4 15 11 1 2 6 7 6 8 4 4 4 2 3 4 5 1 3 2 13 5 7 3 2 3 10 13 6 3 5 5 4 3 2 5 5 4 7 8 18 24 16 16 20
4 3 4 17 12 1 4 6 5 13 3 1 2 3 6 6 6 6 2 2 7 5 6 6 4 6 5 8 5 6 4 1 6 4 2 5 5 6 1 8 3 16 20 24 26
2 2 5 3 5 4 4 6 8 6 4 2 6 5 2 4 5 7 5 6 5 4 4 5 3 4 4 5 3 1 4 10 7 2 5 7 4 5 9 8 19 26 23 23 22
5 5 8 7 11 6 2 4 5 5 1 5 3 5 8 5 4 1 4 4 4 5 3 3 0 2 5 7 9 5 7 8 5 2 7 10 5 9 5 5 7 19 23 21 24
5 5 4 7 6 5 4 8 15 2 2 9 3 5 8 4 8 9 8 5 1 3 2 3 3 3 3 5 6 7 7 9 7 10 2 9 5 14 12 16 20 17 11 4 14
Wind_Direction
321 320 320 320 321 321 320 321 322 322 323 322 323 320 318 304 286 265 236 231 243 280 302 320 316 324 316 250 215 192 342 218 157 130 179 127 120 162 152 140 160 170 157 157 163
317 316 316 316 317 317 317 317 319 320 319 319 320 319 319 314 298 253 226 225 238 259 297 317 318 327 322 272 169 175 184 168 167 147 155 149 142 136 141 153 121 124 147 153 162
318 315 314 314 314 314 315 316 316 318 316 315 317 317 316 321 318 272 236 223 234 262 286 304 312 333 292 326 321 209 158 172 159 156 145 148 149 111 121 142 144 145 156 163 159
319 316 313 313 313 312 313 314 314 315 314 312 313 315 314 318 247 69 168 207 225 248 274 292 306 331 325 340 321 51 192 138 124 143 102 121 152 142 143 165 159 154 159 167 169
320 317 314 312 311 311 311 310 310 310 308 307 309 312 313 295 253 8 56 195 217 237 255 277 297 316 299 321 322 326 249 133 137 105 116 109 89 102 125 149 157 156 164 173 182
322 317 313 312 311 310 307 307 305 303 302 302 303 302 296 276 109 102 335 257 218 235 248 253 269 304 302 294 311 303 224 151 120 98 146 113 47 102 141 148 153 160 168 181 190
323 318 314 312 310 309 305 304 299 295 293 295 295 290 274 245 124 181 186 275 258 244 250 246 276 276 295 305 316 335 350 78 29 100 115 113 28 131 150 157 159 165 168 182 191
324 319 315 312 309 307 306 305 293 285 280 285 284 290 262 293 217 200 193 242 235 239 247 251 268 278 277 288 316 333 41 72 309 86 88 329 227 247 161 161 165 170 175 185 193
325 320 314 310 310 309 311 302 288 275 272 270 272 281 267 207 218 217 224 250 233 240 241 265 275 275 300 27 5 21 100 107 305 55 85 81 278 240 185 167 168 177 182 190 197
327 322 316 313 312 311 322 310 292 262 259 255 238 292 247 184 261 226 216 220 228 258 270 243 243 55 358 63 255 213 239 198 101 357 13 345 230 277 188 166 177 184 188 194 202
330 324 319 317 314 315 5 29 10 69 280 248 268 245 283 326 242 218 196 202 228 272 211 259 77 211 249 249 236 218 257 227 191 91 353 266 249 233 177 185 179 191 196 199 202
332 327 321 317 309 310 19 35 29 338 295 274 263 265 269 274 295 208 180 202 163 213 86 350 222 229 241 259 266 276 193 232 191 198 149 261 275 253 182 191 175 186 203 203 200
334 329 322 317 304 250 336 17 15 342 303 289 240 240 244 240 231 228 215 197 158 217 179 179 234 227 231 270 276 276 195 196 209 182 181 218 245 220 47 106 162 178 202 200 202
333 330 324 326 208 296 61 45 33 350 45 277 188 240 234 241 287 246 231 195 209 200 204 215 247 226 232 242 221 259 262 201 235 143 225 169 262 50 80 37 242 180 206 201 199
330 324 321 308 275 247 351 196 264 323 62 163 179 192 193 192 286 179 201 207 192 207 104 239 213 208 232 239 228 240 241 186 134 172 167 193 92 275 203 180 231 224 224 203 196
329 317 310 294 267 228 270 246 330 49 265 212 156 145 109 211 252 342 181 202 221 199 238 236 250 171 212 250 222 242 45 35 54 52 348 234 121 263 204 199 207 230 221 214 231
328 307 298 268 236 207 297 336 49 130 328 175 175 157 142 206 268 175 155 203 165 115 291 334 297 281 201 278 339 68 59 1 354 6 233 67 84 235 210 222 211 204 62 243 215
329 306 292 257 196 193 348 65 112 246 249 242 136 120 168 172 246 212 120 190 245 112 70 159 319 206 207 174 192 207 141 149 204 220 270 332 232 257 243 14 231 71 93 113 172
333 309 338 144 187 179 133 89 212 251 327 48 36 119 238 234 163 163 192 194 214 171 172 186 270 308 165 163 134 264 126 183 142 84 43 278 306 321 67 86 94 118 117 152 155
350 341 205 110 167 160 78 246 250 257 320 56 125 148 189 257 161 176 183 212 217 193 164 234 299 290 311 69 329 144 171 53 13 24 311 300 253 237 270 226 195 191 183 182 169
353 4 134 121 141 127 164 240 282 299 346 60 123 14 255 260 185 191 204 275 198 248 149 175 116 297 22 183 196 317 336 63 115 137 177 224 273 218 212 219 167 188 214 198 217
354 8 170 168 74 215 201 223 329 316 317 311 283 218 292 298 276 214 198 211 170 168 130 188 134 209 246 260 199 168 200 134 119 248 240 145 264 356 189 217 164 194 204 223 243
341 301 178 194 123 291 287 282 258 276 258 346 308 338 325 337 21 355 106 342 124 94 154 179 32 32 345 347 21 172 199 152 124 101 199 128 252 233 201 161 191 178 191 223 237
348 1 199 210 253 272 318 276 311 304 243 253 309 9 26 357 17 340 14 17 83 96 107 82 106 138 184 222 248 302 345 204 104 74 211 221 210 270 194 165 146 162 169 187 203
351 308 13 298 299 277 238 276 306 331 265 46 5 351 32 356 26 9 350 19 21 134 96 99 126 147 251 258 346 141 56 98 83 154 94 288 262 277 215 187 167 170 176 186 212
27 7 336 286 293 314 74 320 233 299 300 292 167 288 66 90 138 311 352 36 55 328 5 21 201 112 329 352 11 21 93 87 67 94 112 40 12 323 297 309 167 186 189 202 246
343 316 323 301 344 13 341 333 304 325 102 50 358 96 65 1 349 329 302 258 158 6 12 56 94 79 288 351 30 22 317 78 77 26 2 45 317 10 7 7 12 358 321 221 170
Height
1524 1522 1520 1518 1516 1515 1513 1512 1510 1508 1505 1504 1502 1500 1498 1496 1495 1495 1495 1497 1497 1499 1499 1500 1500 1501 1499 1496 1499 1502 1510 1515 1501 1503 1502 1497 1497 1501 1501 1504 1506 1506 1510 1517 1522
1522 1520 1518 1517 1515 1513 1511 1510 1508 1506 1504 1502 1500 1498 1496 1494 1492 1491 1494 1495 1496 1497 1498 1497 1496 1495 1495 1490 1493 1497 1511 1498 1489 1490 1495 1494 1494 1499 1503 1508 1510 1512 1517 1521 1524
1520 1518 1516 1514 1513 1511 1509 1508 1506 1504 1502 1500 1498 1496 1494 1492 1490 1487 1489 1493 1495 1496 1497 1498 1497 1496 1494 1491 1488 1488 1495 1488 1488 1488 1489 1493 1497 1499 1503 1511 1507 1510 1516 1522 1525
1518 1516 1514 1512 1510 1509 1507 1506 1504 1503 1501 1498 1497 1495 1493 1492 1495 1486 1487 1490 1493 1495 1496 1496 1496 1495 1494 1493 1488 1492 1486 1481 1485 1488 1491 1495 1498 1499 1500 1505 1509 1511 1515 1520 1526
1516 1514 1511 1509 1508 1506 1504 1503 1502 1500 1499 1497 1495 1494 1493 1492 1487 1487 1487 1489 1491 1493 1495 1496 1495 1497 1497 1494 1488 1487 1486 1481 1484 1487 1490 1493 1497 1496 1500 1505 1510 1515 1520 1522 1525
1513 1511 1509 1507 1505 1504 1502 1501 1499 1498 1496 1495 1494 1492 1492 1492 1485 1486 1487 1489 1490 1492 1493 1494 1495 1497 1496 1494 1495 1486 1484 1482 1485 1489 1496 1493 1498 1497 1506 1506 1510 1513 1519 1523 1525
1511 1509 1506 1504 1502 1500 1499 1498 1496 1495 1494 1493 1492 1491 1490 1483 1484 1484 1486 1488 1490 1491 1492 1493 1495 1498 1497 1495 1485 1486 1485 1486 1491 1488 1495 1491 1507 1504 1505 1507 1509 1511 1514 1520 1524
1509 1506 1504 1502 1500 1498 1496 1495 1494 1493 1492 1492 1491 1490 1484 1480 1481 1482 1484 1486 1487 1489 1491 1492 1494 1497 1496 1493 1488 1490 1490 1505 1495 1490 1498 1502 1519 1500 1503 1504 1508 1510 1513 1516 1518
1507 1504 1502 1499 1497 1495 1493 1492 1491 1491 1491 1491 1491 1490 1480 1478 1479 1480 1482 1484 1485 1487 1489 1491 1493 1492 1493 1496 1505 1501 1517 1509 1497 1489 1494 1504 1518 1495 1498 1499 1504 1507 1508 1511 1514
1505 1502 1499 1497 1495 1492 1491 1489 1489 1490 1490 1490 1490 1492 1479 1477 1477 1478 1480 1482 1484 1485 1487 1488 1490 1494 1496 1506 1528 1513 1517 1506 1504 1498 1499 1502 1506 1498 1497 1496 1500 1502 1505 1507 1510
1502 1500 1497 1495 1493 1490 1490 1488 1491 1491 1489 1485 1484 1479 1476 1477 1475 1477 1478 1480 1483 1485 1489 1486 1497 1507 1499 1495 1495 1500 1504 1503 1495 1492 1499 1498 1498 1493 1498 1498 1498 1499 1502 1505 1507
1501 1498 1495 1493 1491 1490 1490 1490 1491 1493 1484 1479 1477 1476 1474 1476 1479 1475 1478 1481 1482 1489 1486 1493 1502 1491 1488 1488 1492 1495 1504 1506 1494 1488 1496 1497 1494 1491 1488 1491 1490 1497 1499 1503 1506
1499 1496 1493 1491 1490 1490 1490 1491 1491 1490 1486 1472 1470 1471 1471 1474 1474 1473 1476 1478 1480 1487 1489 1500 1489 1485 1490 1490 1496 1494 1503 1501 1497 1491 1484 1488 1502 1495 1493 1492 1490 1491 1492 1492 1500
1497 1494 1491 1490 1492 1489 1489 1489 1488 1488 1498 1477 1468 1468 1470 1472 1471 1469 1473 1478 1480 1486 1487 1492 1479 1485 1488 1492 1489 1509 1478 1484 1485 1496 1516 1487 1531 1501 1500 1497 1492 1487 1478 1484 1492
1495 1492 1491 1489 1488 1488 1489 1487 1486 1487 1507 1465 1465 1463 1465 1470 1468 1467 1470 1475 1479 1479 1485 1489 1480 1484 1490 1485 1478 1487 1472 1475 1479 1497 1503 1497 1514 1502 1497 1496 1493 1484 1478 1484 1491
1493 1490 1489 1487 1487 1488 1487 1486 1487 1500 1503 1469 1460 1462 1466 1467 1466 1466 1468 1473 1473 1478 1479 1479 1470 1472 1473 1469 1469 1464 1471 1482 1489 1500 1521 1498 1506 1512 1502 1486 1484 1478 1480 1487 1490
1490 1487 1485 1485 1486 1486 1486 1487 1502 1510 1465 1468 1466 1463 1467 1471 1468 1467 1470 1475 1485 1494 1495 1481 1473 1466 1465 1471 1468 1472 1496 1534 1529 1535 1530 1501 1503 1493 1471 1469 1466 1471 1486 1486 1489
1487 1483 1482 1483 1484 1485 1486 1489 1502 1476 1469 1455 1459 1464 1473 1470 1469 1467 1472 1481 1474 1482 1501 1502 1506 1466 1458 1466 1476 1476 1492 1530 1537 1542 1525 1500 1511 1484 1464 1467 1473 1482 1483 1487 1491
1484 1481 1481 1481 1482 1485 1487 1501 1491 1473 1461 1461 1463 1471 1475 1465 1469 1470 1476 1479 1472 1474 1496 1500 1492 1455 1452 1454 1462 1475 1491 1485 1508 1513 1529 1512 1490 1468 1461 1469 1471 1476 1478 1479 1481
1482 1481 1481 1481 1482 1485 1489 1496 1478 1462 1460 1461 1472 1468 1478 1472 1473 1475 1476 1461 1466 1462 1464 1474 1492 1463 1456 1454 1458 1466 1469 1500 1517 1524 1524 1520 1501 1499 1473 1473 1474 1472 1472 1473 1472
1484 1482 1482 1482 1484 1486 1496 1489 1472 1459 1458 1461 1465 1468 1467 1466 1464 1473 1468 1455 1452 1453 1459 1467 1481 1478 1461 1468 1475 1474 1481 1489 1501 1515 1529 1535 1513 1472 1468 1464 1471 1470 1466 1466 1461
1484 1484 1482 1483 1486 1486 1490 1477 1469 1462 1458 1457 1456 1459 1461 1459 1458 1463 1462 1453 1444 1450 1462 1461 1483 1492 1478 1458 1455 1461 1472 1486 1515 1507 1514 1519 1506 1460 1461 1460 1466 1467 1464 1463 1465
1486 1484 1484 1484 1493 1490 1480 1474 1470 1464 1460 1460 1461 1457 1455 1457 1463 1456 1449 1447 1443 1447 1457 1457 1487 1509 1494 1469 1459 1460 1462 1471 1484 1496 1499 1519 1505 1458 1455 1462 1460 1465 1466 1465 1464
1488 1488 1484 1485 1483 1483 1483 1475 1468 1458 1456 1457 1459 1454 1459 1461 1458 1459 1453 1446 1444 1448 1451 1454 1482 1495 1512 1496 1479 1474 1459 1457 1479 1501 1503 1500 1478 1463 1461 1460 1458 1458 1460 1459 1453
1490 1488 1489 1489 1483 1482 1482 1476 1472 1467 1456 1455 1458 1458 1462 1468 1469 1469 1459 1455 1451 1452 1453 1459 1481 1475 1475 1475 1468 1465 1468 1469 1478 1479 1498 1487 1480 1467 1462 1461 1456 1456 1456 1455 1455
1492 1491 1488 1485 1481 1479 1474 1470 1467 1462 1460 1460 1459 1457 1462 1471 1470 1473 1467 1464 1463 1456 1458 1461 1480 1472 1480 1471 1469 1471 1469 1471 1469 1474 1477 1475 1477 1465 1461 1459 1465 1463 1459 1458 1456
1494 1492 1491 1483 1483 1481 1482 1478 1467 1459 1458 1457 1457 1461 1464 1463 1461 1461 1461 1461 1462 1462 1466 1469 1476 1488 1492 1480 1475 1491 1477 1475 1483 1482 1476 1493 1489 1470 1466 1463 1462 1458 1456 1456 1453